Viterbo Airport LIRV

Flugplatz Daten

Name: Viterbo Airport

Ident: LIRV

Lat: 42,43019867

Long: 12,0642004

Platzhöhe: 992 ft

IataCode:

City: Viterbo

Metar

2022/08/13 16:55
LIRV 131655Z 24010KT 9999 SCT033TCU 26/17 Q1012 RMK SCT MON E SE LIB NC VIS MIN 9999 WIND THR04 /////KT BLU

Taf

Gewünschte Webcam nicht vorhanden? Dann fügen Sie eine hinzu. Sie wird dann so schnell wie möglich freigeschaltet
Url: Title: